FW1075 Weather Reports


time (UTC)temp
F
wind
direction
speed
knots
gust
knots
rain 1hr
in
rain 24hr
in
rain mn
in
humidity
%
barometer
mb
20260905002121 78 317 1.7 3.5 0.00 0.03 0.03 65 1008.8
20260905001123 78 299 0.9 3.5 0.00 0.03 0.03 64 1008.6
20260905000126 79 281 0.9 4.3 0.00 0.03 0.03 62 1008.6
20260904235121 79 353 1.7 3.5 0.00 0.03 0.03 61 1008.6
20260904234121 80 298 3.5 6.1 0.00 0.03 0.03 61 1008.7
20260904233121 80 294 2.6 4.3 0.00 0.03 0.03 61 1008.5
20260904232146 80 312 2.6 6.1 0.00 0.03 0.03 61 1008.5
20260904231144 81 291 1.7 3.5 0.00 0.03 0.03 62 1008.4
20260904230121 81 310 2.6 5.2 0.00 0.03 0.03 60 1008.4
20260904225122 82 324 2.6 5.2 0.00 0.03 0.03 59 1008.5
20260904224148 82 300 3.5 7.0 0.00 0.03 0.03 59 1008.6
20260904223123 83 328 3.5 7.0 0.00 0.03 0.03 58 1008.4
20260904222122 83 302 2.6 4.3 0.00 0.03 0.03 60 1008.5
20260904221123 84 290 2.6 4.3 0.00 0.03 0.03 59 1008.4
20260904220127 84 308 3.5 6.1 0.00 0.03 0.03 58 1008.4
20260904215128 85 303 3.5 6.1 0.00 0.03 0.03 56 1008.2
20260904214122 86 347 4.3 7.0 0.00 0.03 0.03 54 1008.2
20260904213121 87 320 3.5 6.1 0.00 0.03 0.03 54 1008.1
20260904212125 87 313 3.5 6.1 0.00 0.03 0.03 54 1008.2
20260904211121 88 326 4.3 10.4 0.00 0.03 0.03 52 1008.4
20260904210128 88 308 3.5 6.1 0.00 0.03 0.03 51 1008.4
20260904205121 89 332 4.3 7.8 0.00 0.03 0.03 51 1008.4
20260904204123 90 336 3.5 7.0 0.00 0.03 0.03 51 1008.4
20260904203124 91 299 3.5 5.2 0.00 0.03 0.03 51 1008.4
20260904202121 90 300 2.6 7.0 0.00 0.03 0.03 52 1008.5
20260904201125 90 287 3.5 6.1 0.00 0.03 0.03 53 1008.7
20260904200121 91 277 2.6 5.2 0.00 0.03 0.03 53 1008.7
20260904195125 91 314 3.5 5.2 0.00 0.03 0.03 51 1008.7
20260904194121 90 285 2.6 5.2 0.00 0.03 0.03 54 1008.8
20260904193122 88 323 3.5 6.1 0.00 0.03 0.03 56 1008.9
20260904192145 91 304 2.6 5.2 0.00 0.03 0.03 53 1009.1
20260904191121 91 326 4.3 7.0 0.00 0.03 0.03 53 1009.2
20260904190125 90 306 4.3 8.7 0.00 0.03 0.03 54 1009.2
20260904185144 89 323 3.5 6.1 0.00 0.03 0.03 54 1009.0
20260904184124 89 289 3.5 6.1 0.00 0.03 0.03 56 1009.1
20260904183122 87 340 3.5 6.1 0.00 0.03 0.03 57 1009.2
20260904182122 88 299 3.5 6.1 0.00 0.03 0.03 56 1009.2
20260904181125 88 285 3.5 7.0 0.00 0.03 0.03 56 1009.2
20260904180128 89 5 4.3 6.1 0.00 0.03 0.03 55 1009.2
20260904180121 89 7 4.3 6.1 0.00 0.03 0.03 55 1009.2
20260904175121 89 303 4.3 7.8 0.00 0.03 0.03 54 1009.2
20260904174121 89 336 4.3 7.8 0.00 0.03 0.03 54 1009.2
20260904173124 89 322 4.3 7.8 0.00 0.03 0.03 54 1009.1
20260904172121 88 309 5.2 9.6 0.00 0.03 0.03 57 1009.2
20260904171122 89 307 4.3 11.3 0.00 0.03 0.03 58 1009.2
20260904170121 88 311 4.3 7.8 0.00 0.03 0.03 57 1009.2
20260904165125 88 329 4.3 8.7 0.00 0.03 0.03 58 1009.2
20260904164142 88 304 4.3 7.0 0.00 0.03 0.03 57 1009.2
20260904163123 88 329 4.3 8.7 0.00 0.03 0.03 59 1009.2
20260904162122 87 319 4.3 7.8 0.00 0.03 0.03 60 1009.4
20260904161124 87 4 3.5 7.0 0.00 0.03 0.03 61 1009.5
20260904160124 87 317 4.3 7.0 0.00 0.03 0.03 61 1009.5
20260904155127 87 322 4.3 6.1 0.00 0.03 0.03 63 1009.5
20260904155121 87 323 4.3 6.1 0.00 0.03 0.03 63 1009.5
20260904154121 86 315 3.5 6.1 0.00 0.03 0.03 65 1009.7
20260904153126 86 301 5.2 7.0 0.00 0.03 0.03 64 1009.8
20260904152142 86 330 4.3 7.8 0.00 0.03 0.03 65 1010.0
20260904151125 85 289 4.3 7.8 0.00 0.03 0.03 66 1009.8
20260904150122 86 280 3.5 7.8 0.00 0.03 0.03 69 1009.8
20260904145122 85 306 3.5 7.8 0.00 0.03 0.03 70 1009.8
20260904144122 84 316 3.5 6.1 0.00 0.03 0.03 73 1009.9
20260904143124 83 314 4.3 7.8 0.00 0.03 0.03 75 1009.9
20260904142122 83 4 3.5 7.0 0.00 0.03 0.03 78 1009.8
20260904141122 82 18 4.3 7.8 0.00 0.03 0.03 78 1009.6
20260904140123 82 343 3.5 6.1 0.00 0.03 0.03 79 1009.6
20260904135125 81 310 4.3 7.8 0.00 0.03 0.03 81 1009.5
20260904134122 81 332 3.5 6.1 0.00 0.03 0.03 82 1009.5
20260904133120 80 310 3.5 6.1 0.00 0.03 0.03 83 1009.4
20260904132120 80 9 3.5 6.1 0.00 0.03 0.03 83 1009.5
20260904131141 80 350 2.6 6.1 0.00 0.03 0.03 86 1009.4
20260904130142 79 307 5.2 7.8 0.00 0.03 0.03 87 1009.4
20260904125141 78 334 4.3 6.1 0.00 0.03 0.03 88 1009.2
20260904124120 79 28 3.5 5.2 0.00 0.03 0.03 88 1009.4
20260904123124 78 358 3.5 7.0 0.00 0.03 0.03 91 1009.2
20260904122120 78 356 3.5 7.0 0.01 0.03 0.03 93 1009.2
20260904121120 77 13 4.3 8.7 0.01 0.03 0.03 93 1009.2
20260904120121 77 13 3.5 6.1 0.01 0.03 0.03 95 1009.2
20260904115120 77 282 2.6 6.1 0.01 0.03 0.03 98 1009.4
20260904114120 76 309 2.6 6.1 0.01 0.03 0.03 99 1009.2
20260904113120 76 281 2.6 4.3 0.01 0.03 0.03 99 1009.0
20260904112144 75 325 1.7 2.6 0.00 0.02 0.02 99 1008.9
20260904111120 75 320 1.7 4.3 0.00 0.02 0.02 99 1008.8
20260904110143 74 316 1.7 3.5 0.00 0.02 0.02 99 1008.8
20260904105123 73 317 1.7 4.3 0.00 0.02 0.02 99 1008.8
20260904104141 73 319 1.7 3.5 0.00 0.02 0.02 99 1008.7
20260904103143 73 295 1.7 3.5 0.00 0.02 0.02 99 1008.6
20260904102124 73 293 1.7 3.5 0.00 0.02 0.02 99 1008.7
20260904101122 72 281 1.7 2.6 0.00 0.02 0.02 99 1008.5
20260904100122 72 345 0.0 0.9 0.00 0.02 0.02 99 1008.5
20260904095124 73 270 0.0 0.0 0.00 0.02 0.02 99 1008.5
20260904094121 73 203 0.0 0.0 0.00 0.02 0.02 99 1008.2
20260904093122 73 180 0.0 0.0 0.00 0.02 0.02 99 1008.2
20260904092126 73 11 0.0 0.9 0.00 0.02 0.02 99 1008.1
20260904091122 73 270 0.0 0.9 0.00 0.02 0.02 99 1008.2
20260904090122 73 238 0.0 1.7 0.00 0.02 0.02 99 1008.2
20260904085142 73 255 0.0 1.7 0.00 0.02 0.02 99 1008.2
20260904084121 74 307 0.9 2.6 0.00 0.02 0.02 99 1008.2
20260904083121 74 280 0.0 1.7 0.00 0.02 0.02 99 1008.4
20260904082145 74 322 0.9 1.7 0.00 0.02 0.02 99 1008.5
20260904081121 74 338 0.0 0.0 0.00 0.02 0.02 99 1008.6
20260904080142 75 268 0.0 1.7 0.02 0.03 0.02 99 1008.6
20260904075123 75 252 1.7 2.6 0.02 0.03 0.02 99 1008.2
20260904074123 75 328 0.0 0.9 0.02 0.03 0.02 99 1007.9
20260904073121 75 104 0.9 1.7 0.02 0.04 0.02 99 1007.8
20260904072143 76 310 1.7 2.6 0.02 0.04 0.02 99 1007.9
20260904071122 77 350 2.6 6.1 0.02 0.06 0.02 99 1008.2
20260904070124 78 323 2.6 7.8 0.00 0.05 0.00 96 1008.2
20260904065126 78 295 2.6 6.1 0.00 0.06 0.00 94 1008.6
20260904064123 78 326 1.7 3.5 0.00 0.07 0.00 96 1008.6
20260904063122 78 319 0.9 2.6 0.00 0.07 0.00 97 1008.4
20260904062143 78 11 0.0 0.9 0.00 0.07 0.00 98 1008.5
20260904061122 78 0 0.0 0.9 0.00 0.07 0.00 99 1008.5
20260904060122 78 290 0.0 1.7 0.00 0.08 0.00 99 1008.5
20260904055125 78 252 0.9 3.5 0.00 0.08 0.00 99 1008.7
20260904054146 77 255 0.0 1.7 0.00 0.09 0.00 99 1009.1
20260904053122 78 262 0.0 1.7 0.00 0.09 0.00 99 1009.2
20260904052121 78 233 0.9 1.7 0.00 0.11 0.00 99 1009.2
20260904051121 78 203 0.0 0.0 0.00 0.16 0.00 98 1009.2
20260904050122 78 184 0.0 1.7 0.00 0.17 0.00 98 1009.5
20260904045121 78 226 0.0 1.7 0.00 0.17 0.00 98 1009.5
20260904044121 78 249 0.9 2.6 0.00 0.18 0.00 97 1009.7
20260904043122 78 240 0.9 2.6 0.00 0.18 0.00 97 1009.9
20260904042126 78 205 0.9 4.3 0.00 0.18 0.00 97 1010.0
20260904041123 78 258 0.9 2.6 0.00 0.18 0.00 97 1010.0
20260904040123 78 254 1.7 3.5 0.00 0.18 0.00 97 1010.0
20260904035126 78 248 0.0 2.6 0.00 0.18 0.18 97 1010.0
20260904034122 78 196 0.9 1.7 0.00 0.18 0.18 96 1009.8
20260904033124 78 233 0.9 2.6 0.00 0.18 0.18 96 1009.7
20260904032127 78 169 0.0 0.9 0.00 0.18 0.18 96 1009.8
20260904031122 78 218 0.9 1.7 0.00 0.18 0.18 96 1009.9
20260904030124 78 202 0.9 2.6 0.00 0.18 0.18 95 1009.9
20260904025122 78 203 0.0 0.0 0.00 0.18 0.18 95 1010.1
20260904024143 78 225 0.0 0.0 0.00 0.18 0.18 95 1010.2
20260904023122 78 270 0.0 0.9 0.00 0.18 0.18 95 1010.5
20260904022123 78 264 0.9 2.6 0.00 0.18 0.18 97 1010.7
20260904021127 77 243 0.0 1.7 0.00 0.18 0.18 97 1010.8
20260904020142 77 248 0.0 0.0 0.00 0.18 0.18 98 1010.8
20260904015121 77 248 0.0 0.0 0.00 0.18 0.18 98 1010.8
20260904014144 77 270 0.0 0.0 0.00 0.18 0.18 98 1010.9
20260904013121 77 225 0.0 0.0 0.00 0.18 0.18 98 1010.7
20260904012126 77 113 0.0 0.0 0.00 0.18 0.18 97 1010.8
20260904011127 77 315 0.0 0.0 0.00 0.18 0.18 97 1010.5
20260904010121 78 90 0.0 0.9 0.00 0.18 0.18 97 1010.5
20260904005122 78 203 0.0 0.0 0.00 0.18 0.18 97 1010.7
20260904004121 78 225 0.0 0.0 0.00 0.18 0.18 96 1010.8
20260904003148 78 158 0.0 0.0 0.00 0.18 0.18 95 1010.6